Location: Antioch Church
(34.9543°N, 88.5145°W)
Time: 22:46:44
(UTC+00:00)

STARLINK 1046 - Pass Details

Date: 11 December 2019
Orbit: 548 x 551 km, 53.0° (Epoch: 18 January)

Event Time Altitude Azimuth Distance (km) Brightness Sun altitude
Exits shadow 10:04:58 12° 49° (NE) 1,755 6.6 -33.3°
Drops below altitude 10° 10:05:33 10° 56° (NE) 1,856 6.8 -33.2°
Enters shadow 11:06:12 -66° 298° (WNW) 12,282 10.4 -21.0°
Maximum altitude 11:43:47 67° 43° (NE) 613 3.9 -13.6°
